Погода в Чикшине

Россия / Республика Коми     64°53′34″N   56°25′48″E
темп.,
°C
ветер,
м/с
пор.,
м/с
влажн.,
%
обл.,
%
осадки,
мм/ч
давл.,
гПа
погр.,
м
5 марта, пт
пт500:00−15сз1297100 0.1 99231
03:00−17ссз239799 0.2 99391
06:00−19сз229899 0.1 99375
09:00−18сз1396100 0.2 995228
12:00−16сз239494 0.0 996323
15:00−15сз239497 0.1 998382
18:00−18зсз2498100 0.1 999105
21:00−19ссз2398100 0.1 100171
6 марта, сб
сб600:00−20сз2498100 0.1 1001166
03:00−21сз2498100 0.2 1003124
06:00−22сз2498100 0.1 1004140
09:00−21сз249799 0.2 1004262
12:00−19сз2393100 0.1 1005421
15:00−19зсз2393100 0.2 1006490
18:00−22зсз1299100 0.1 100625
21:00−23зсз119896 0.1 100720
7 марта, вс
вс700:00−24з119991 0.1 100720
03:00−24зюз119892 0.1 100820
06:00−24св009999 0.1 100820
09:00−22юв129595 0.1 1008232
12:00−19юв118697 0.0 1008565
15:00−19всв118899 0.1 1009542
18:00−24св239899 0.0 100928
21:00−27св2210089 0.1 100919
8 марта, пн
пн800:00−29ссв2210075 0.0 100919
03:00−30ссв229970 0.0 100919
06:00−31ссв229949 0.0 100920
09:00−27ссв239643 0.0 1009202
12:00−23с239582 0.0 1009321
15:00−24с359591 0.0 1009377
18:00−29с239991 0.0 101049
21:00−32с259993 0.0 1011105
9 марта, вт
вт900:00−34с269897 0.0 1011134
03:00−37с259882 0.0 1012109
06:00−38с279832 0.0 1013133
09:00−33с369436 0.0 1013300
12:00−29с369367 0.0 1013395
15:00−27с369377 0.0 1014412
18:00−32ссз239862 0.0 101529
21:00−34сз229931 0.0 101519